Theta_e
351 351 352 353 352 351 351 351 349 349 349 349 349 349 349 349 349 349 349 349 349 350 350 350 351 351 352 352 353 353 353 353 353 352 353 353 352 352 352 352 352 351 351 351 351 352 352 351 349 349 350 349 349 349 349 348 346 345 345 345 344 344 343 344 343 339 338 338 339 341 342 342 342 341 341 341 340 340 340 341 340 341 341 339 339
350 352 352 353 352 351 350 350 349 349 349 349 349 349 349 348 349 349 349 349 350 350 351 351 352 352 353 354 354 354 353 353 353 353 353 353 352 352 351 351 351 352 351 351 352 351 352 350 350 350 349 348 348 347 347 347 347 345 344 344 342 340 338 337 339 339 339 339 340 339 340 340 341 340 340 340 340 340 339 340 341 340 339 339 339
353 352 353 352 353 352 351 350 349 349 349 348 349 349 349 350 350 350 350 350 350 350 351 352 352 353 353 353 353 353 353 353 352 353 353 353 352 353 352 352 351 351 352 352 351 351 350 351 350 349 349 348 346 346 346 346 345 344 344 343 342 342 342 342 340 340 341 341 343 343 342 342 339 338 339 340 340 340 341 341 340 340 339 339 339
352 352 353 353 352 350 350 349 349 348 348 349 349 350 350 351 351 351 351 351 351 351 352 352 353 353 354 353 353 353 353 352 352 353 353 353 352 353 352 352 352 353 352 352 350 349 350 349 349 348 348 348 346 345 345 346 344 342 341 340 340 340 340 340 341 341 340 340 341 341 340 340 339 339 340 339 340 340 340 339 340 342 340 340 341
352 351 350 351 353 351 350 350 349 349 349 349 350 350 351 351 351 352 352 353 353 353 353 353 353 353 353 353 353 353 353 352 353 352 353 352 351 351 352 351 350 352 352 351 351 350 348 349 348 347 348 348 347 345 344 344 344 342 341 341 341 340 340 340 340 340 339 337 339 344 339 339 341 339 340 339 338 341 340 340 341 341 341 341 341
352 351 350 353 351 351 349 349 350 350 349 349 348 350 350 351 352 352 353 353 353 353 353 353 353 353 353 353 353 353 353 352 352 352 352 351 351 350 350 351 351 349 350 350 350 350 349 349 349 350 349 349 348 347 345 344 344 343 342 341 340 340 339 339 338 337 337 337 339 342 340 342 340 338 338 340 340 339 338 339 338 338 338 338 339
354 351 351 352 351 351 350 349 349 349 348 349 349 350 350 351 352 352 353 353 353 353 353 353 353 353 353 353 353 353 353 353 352 352 352 352 351 350 352 351 350 350 350 349 350 349 348 348 350 349 349 348 348 348 346 345 343 342 341 341 340 340 339 339 338 336 337 341 342 341 341 339 339 338 339 338 339 338 337 338 337 337 336 336 336
353 351 351 349 351 351 350 350 349 348 348 349 349 350 350 351 352 352 352 353 354 354 354 353 353 353 353 353 353 353 353 352 351 351 351 351 350 350 350 351 350 350 349 350 350 349 348 349 349 348 348 348 347 346 345 345 343 341 341 341 341 340 340 339 339 341 341 340 341 342 342 341 341 339 340 341 339 340 344 343 342 341 341 338 336
350 350 350 350 351 349 349 349 349 349 349 349 348 350 350 351 352 352 352 353 353 353 353 353 353 353 353 352 352 353 352 352 351 351 350 350 350 350 349 350 351 350 349 349 348 348 348 348 348 347 347 346 345 345 345 345 344 342 341 342 342 342 342 342 342 341 345 342 341 342 343 342 342 339 336 339 341 341 342 343 344 343 341 339 338
349 349 349 350 350 351 350 349 349 349 348 348 348 349 350 350 351 352 352 353 353 353 353 353 353 353 353 353 352 352 351 351 350 350 350 350 350 350 349 349 349 350 349 349 349 348 348 347 346 345 346 345 345 345 345 345 345 345 344 342 342 344 344 343 342 345 341 341 341 345 345 348 340 338 336 338 341 340 340 339 340 340 340 338 336
350 349 350 351 350 351 350 350 349 348 348 348 349 349 350 350 350 351 352 353 353 353 353 353 353 353 352 352 352 352 351 350 350 350 350 349 350 350 349 349 349 349 349 349 348 348 347 346 345 345 346 346 346 346 346 346 345 345 345 342 342 342 342 342 343 339 341 341 342 342 341 342 343 341 337 337 338 338 336 336 337 337 337 337 335
348 350 352 353 353 350 351 350 349 349 349 349 349 349 349 349 350 351 352 353 352 353 353 352 352 352 352 351 351 351 351 351 350 350 351 350 350 349 349 348 347 347 346 347 347 346 347 345 345 345 345 347 348 348 348 348 346 346 346 343 344 343 342 342 341 340 340 340 341 342 340 340 340 339 337 336 336 336 334 336 335 334 336 336 335
348 349 353 353 351 351 351 350 349 348 348 348 348 349 349 350 351 351 352 353 353 353 352 352 352 351 351 351 351 351 350 350 350 349 349 349 349 349 348 348 347 346 346 346 345 344 345 346 346 344 345 347 348 348 348 348 347 347 345 344 343 344 342 342 341 340 339 340 340 341 341 343 343 336 337 337 337 339 339 336 335 337 337 334 333
348 350 352 351 351 352 350 350 349 349 348 348 349 349 350 351 351 352 352 352 352 352 352 351 351 351 351 350 350 350 349 349 349 349 349 349 349 348 347 346 345 345 345 344 343 343 344 344 344 345 345 347 348 347 347 347 347 346 345 344 343 342 343 345 342 340 340 340 342 340 342 343 342 338 336 337 335 339 337 335 334 335 335 335 335
349 351 352 352 351 351 351 350 350 349 350 350 350 350 351 352 352 352 352 352 352 352 351 351 351 350 351 350 349 348 348 348 348 347 347 347 347 346 346 346 345 345 344 344 343 342 343 343 343 344 344 345 347 347 346 346 346 346 345 344 344 343 341 339 339 340 340 339 338 340 341 343 340 340 337 337 336 335 335 334 335 334 335 334 334
350 351 351 352 350 351 351 351 349 350 350 349 350 350 351 351 351 351 351 351 352 352 351 351 351 350 350 349 348 347 348 348 347 347 346 346 346 345 345 345 345 345 344 344 343 342 342 342 343 343 343 344 346 347 347 346 346 345 344 344 343 342 342 345 340 340 341 341 340 342 341 343 340 339 338 336 335 332 335 336 335 334 334 334 333
351 351 350 351 352 350 349 350 350 349 348 348 349 349 349 349 350 350 351 351 351 351 351 351 350 350 349 349 348 348 347 347 346 346 346 346 345 345 345 346 346 346 344 343 342 342 342 342 342 342 342 343 345 346 347 347 346 345 344 344 343 342 344 344 339 341 340 340 338 340 343 342 340 338 336 334 334 333 334 335 334 334 335 334 331
350 351 350 350 351 349 350 350 349 350 350 348 347 347 347 348 349 350 350 351 351 351 350 350 350 350 350 349 349 348 348 347 347 346 346 346 345 345 345 345 345 344 344 344 344 342 342 341 341 341 342 343 345 346 346 346 345 345 344 343 342 343 343 342 343 341 338 338 339 341 343 342 339 337 335 335 336 336 334 332 335 334 333 334 331
350 349 349 349 348 350 350 351 351 349 349 349 348 347 346 347 348 350 351 350 350 350 350 350 350 350 349 349 348 349 348 347 347 347 346 345 345 345 345 344 344 343 344 344 343 343 342 342 341 341 341 342 345 346 346 345 345 344 344 343 343 342 343 343 341 340 340 342 342 342 344 339 338 335 335 336 335 335 333 332 336 336 335 333 331
349 349 349 350 349 348 351 350 349 350 349 349 348 348 347 347 348 348 349 350 350 350 350 349 350 349 348 349 349 350 349 349 347 348 346 346 345 345 344 345 344 344 345 344 343 343 342 340 342 341 342 343 344 346 346 345 345 344 343 344 343 343 343 343 341 340 342 338 342 343 339 337 336 336 336 334 333 334 336 336 336 334 334 332 331
347 347 349 349 349 350 352 348 349 349 348 348 348 348 346 347 348 347 348 349 349 350 349 349 349 349 349 348 349 349 349 349 350 349 348 348 347 345 344 344 345 345 344 344 344 344 343 341 341 340 339 342 345 346 346 345 344 344 344 343 344 343 344 344 344 343 342 340 341 340 337 336 335 335 337 335 334 336 337 336 334 333 333 331 329
344 345 348 348 348 350 349 348 347 346 347 346 346 346 346 345 347 348 349 349 349 350 351 350 349 351 348 350 349 347 346 346 347 342 346 349 348 346 345 344 344 344 344 344 344 343 342 342 339 339 338 339 344 348 348 345 344 344 343 344 343 343 344 344 344 342 342 342 341 339 336 335 336 337 337 336 335 334 334 333 334 333 333 332 330
342 344 345 348 348 348 348 346 346 346 345 345 345 346 346 346 346 347 348 347 348 348 348 348 348 348 347 345 347 347 344 344 347 344 345 340 348 346 345 345 345 344 343 343 343 342 341 340 338 339 339 337 343 345 348 346 346 343 344 344 346 343 346 345 344 343 341 342 342 339 337 337 337 338 337 335 335 335 333 333 334 334 332 331 332
342 343 343 346 346 345 346 345 345 344 343 342 344 344 344 346 344 346 346 348 347 346 347 347 347 348 347 347 345 347 348 348 345 347 348 347 345 346 344 344 343 341 337 345 341 341 340 338 340 339 339 342 343 341 342 345 346 348 347 345 344 344 344 344 340 342 343 340 340 339 338 338 337 337 337 337 335 335 334 333 333 333 332 331 331
342 344 343 345 345 345 344 343 343 344 344 343 344 342 346 345 345 346 346 345 345 345 346 347 347 347 347 346 348 349 348 348 349 350 348 348 347 347 348 345 345 346 342 345 344 343 347 342 336 340 342 342 340 342 343 345 347 345 346 344 344 345 343 344 342 341 344 344 344 340 338 338 338 338 338 337 336 335 334 333 334 333 332 332 332
343 340 341 342 344 343 343 342 344 345 345 343 344 344 344 344 345 345 345 346 345 344 344 345 345 347 346 347 349 351 351 351 352 352 352 352 351 347 346 346 343 343 344 343 341 344 344 341 338 337 339 342 342 342 342 342 342 343 342 343 343 345 343 341 342 343 344 343 345 340 339 339 339 339 338 338 337 335 334 334 334 333 332 331 331
338 340 341 341 342 343 344 343 343 343 345 345 345 343 343 345 345 345 344 344 344 344 343 345 347 346 347 349 351 350 350 350 351 352 351 352 351 350 350 350 348 346 345 342 344 344 342 340 339 338 340 341 341 341 341 342 342 340 341 340 342 342 343 342 342 342 343 343 344 340 340 340 339 339 338 338 338 336 335 335 335 334 332 331 331
338 339 338 340 341 342 344 344 343 343 345 346 345 342 344 345 345 344 344 344 343 344 345 346 347 347 348 352 352 352 348 347 349 350 350 352 351 351 350 349 349 348 349 344 342 341 340 340 341 338 336 339 339 341 340 340 342 344 342 341 342 343 344 342 342 344 343 344 344 341 341 339 340 339 339 338 338 337 336 335 335 334 334 332 332
336 338 338 339 340 342 343 343 343 343 344 345 344 344 345 346 347 346 345 345 346 346 345 347 347 345 347 347 349 350 349 348 348 349 350 350 350 351 349 349 350 350 350 347 344 342 341 340 341 339 337 338 339 341 341 341 344 344 342 341 343 342 342 342 344 342 343 342 344 342 340 340 340 339 339 339 339 339 337 337 336 335 336 335 333
336 338 339 339 341 343 343 343 343 343 344 344 343 344 344 344 346 348 347 348 346 346 348 346 346 346 347 350 351 352 350 348 349 350 349 348 349 352 351 350 349 349 348 350 348 343 341 342 340 339 336 336 335 338 340 340 340 342 340 341 342 342 343 343 342 342 344 345 345 344 341 341 340 339 339 339 340 339 339 337 337 336 336 336 334
337 338 338 338 341 342 342 343 343 344 344 343 344 345 347 347 347 349 350 348 347 348 349 350 350 351 351 352 351 351 351 351 349 349 349 346 347 346 346 348 348 349 348 349 350 349 348 344 342 340 340 339 338 338 338 339 338 338 340 339 342 344 342 343 343 343 344 344 345 346 343 341 340 340 340 339 339 339 339 339 338 337 336 335 335
338 337 338 341 341 343 343 344 345 345 345 343 345 344 346 346 347 350 349 348 351 350 350 351 350 349 350 352 351 350 349 349 347 348 348 347 346 345 346 346 346 348 349 350 350 349 348 347 346 346 344 342 339 339 339 337 336 335 337 339 340 340 340 342 343 344 344 345 344 345 345 343 341 341 340 340 339 339 340 341 339 338 337 337 337
339 339 339 342 342 344 344 345 347 347 346 346 345 346 347 346 347 347 349 348 349 348 349 350 350 349 349 351 351 349 348 346 346 346 345 345 345 345 346 347 349 347 348 347 349 350 349 348 348 347 347 347 344 341 337 339 338 337 337 339 340 338 340 342 343 343 343 343 343 342 345 344 344 340 339 340 339 339 339 340 341 339 338 337 335
337 340 341 341 343 345 346 346 349 348 349 348 346 346 347 348 348 348 348 348 350 349 348 349 349 349 350 350 349 348 348 348 347 345 345 343 344 343 344 344 347 348 348 350 348 348 347 347 346 346 345 346 345 346 343 341 338 339 340 341 342 341 340 339 340 341 343 345 344 345 344 344 343 345 342 340 340 339 338 338 340 340 340 337 336
338 339 341 343 345 344 345 346 349 348 348 347 347 346 347 345 346 348 348 349 348 348 349 349 348 349 349 347 347 347 348 346 345 345 343 343 342 342 343 342 346 348 347 348 346 346 347 346 346 344 345 345 345 345 344 344 344 344 346 346 345 346 346 345 345 344 342 344 346 345 346 345 343 344 343 342 341 339 338 338 339 339 339 338 336
341 342 342 344 343 345 346 347 348 348 346 346 347 348 347 347 347 346 348 350 347 345 346 347 349 349 348 348 347 347 346 345 345 345 344 343 341 342 342 345 345 347 345 345 345 343 344 344 346 345 342 343 343 343 344 343 345 344 346 346 346 346 346 345 345 345 345 345 343 345 345 345 345 344 345 342 343 342 338 338 338 338 338 337 337
342 341 342 343 345 345 346 347 346 345 346 346 347 347 347 347 349 350 348 348 346 346 347 348 348 348 347 347 347 346 346 345 345 345 344 343 342 344 343 346 348 346 346 344 344 343 343 341 344 344 344 341 339 340 342 343 343 343 345 345 345 345 345 345 346 346 347 346 345 345 345 345 345 344 345 344 344 343 340 338 338 338 337 338 338
339 340 343 340 340 345 345 344 345 345 346 346 347 347 347 349 348 347 348 346 346 347 348 347 346 346 347 346 346 345 344 345 346 346 346 345 345 344 346 347 347 347 346 346 346 346 345 345 343 344 342 341 338 339 338 339 339 339 339 341 342 341 342 343 344 342 343 343 343 343 344 345 345 345 345 345 345 343 344 340 338 338 338 336 335
337 338 339 339 340 340 342 344 345 346 346 347 347 348 348 348 347 346 347 345 347 347 347 344 343 345 344 344 344 344 344 346 346 346 347 345 345 345 345 344 344 344 345 345 344 345 345 344 343 342 344 343 340 340 340 337 337 336 336 338 339 341 340 341 342 341 342 343 342 342 344 343 343 344 345 345 345 345 344 345 342 340 339 336 336
339 339 337 335 337 341 344 345 347 347 346 346 346 344 344 344 344 346 344 342 344 343 344 343 344 343 343 343 342 342 343 343 344 345 346 345 344 343 343 343 342 343 342 342 341 341 339 338 339 339 338 339 340 339 339 337 336 336 336 337 338 339 340 341 341 342 342 343 343 343 343 342 341 342 343 344 344 344 344 344 342 339 339 338 336
333 336 334 335 338 338 341 343 345 346 345 344 344 344 342 344 345 342 339 340 340 340 340 342 341 342 342 341 341 342 342 342 342 342 343 341 341 342 341 339 340 340 340 339 339 338 338 338 337 338 336 335 335 338 338 337 333 332 335 335 336 338 340 341 342 342 342 341 341 341 342 342 341 340 340 342 341 342 343 343 342 341 340 340 338
336 336 337 342 343 342 343 344 347 347 347 346 344 345 346 344 343 340 338 338 338 337 336 337 338 339 340 340 341 340 340 340 340 340 340 340 339 338 338 338 339 338 338 338 337 337 337 337 336 335 336 334 334 336 336 336 331 328 327 328 331 335 339 342 342 342 342 342 342 342 342 342 341 341 340 338 342 338 341 342 342 342 341 340 339
337 337 338 340 342 341 345 345 345 345 345 344 342 342 343 344 342 340 339 336 339 339 338 338 338 338 339 339 340 340 339 339 339 339 339 339 339 339 338 338 337 337 337 337 336 336 336 335 335 333 332 335 334 336 336 336 329 331 330 328 324 324 331 335 340 340 340 341 341 341 341 341 341 342 340 339 338 339 339 340 340 341 341 340 338
336 337 337 337 338 338 341 343 343 344 343 343 343 344 344 343 343 341 339 337 335 337 337 337 337 336 335 337 338 338 338 338 338 338 338 338 338 338 337 337 338 337 335 334 334 334 336 335 335 334 334 330 330 331 336 336 335 330 323 323 324 325 320 325 328 333 336 338 340 340 340 339 340 341 341 339 339 338 338 338 339 340 341 341 339
334 335 335 336 336 337 338 340 340 341 342 342 343 343 341 340 339 338 337 335 335 333 333 332 333 333 334 334 334 335 335 335 335 335 335 334 334 335 335 335 335 336 335 333 333 333 334 334 334 333 332 330 329 332 334 336 335 337 329 324 322 321 321 324 327 328 335 333 334 334 337 338 339 339 338 338 340 340 339 338 338 339 342 341 340
331 332 333 336 337 337 338 339 339 339 340 342 342 341 340 338 336 333 331 330 329 329 328 328 329 330 329 331 331 331 331 331 331 331 330 329 328 329 330 330 331 331 332 331 330 329 329 330 330 330 330 331 330 330 331 334 335 335 335 333 333 322 322 325 325 320 331 333 333 333 333 335 337 337 338 337 336 336 339 337 338 339 340 340 340
329 332 333 334 336 337 337 338 338 337 338 339 341 339 338 337 336 335 334 332 329 329 330 330 329 330 329 328 327 327 325 325 326 328 327 327 327 326 328 329 328 328 328 327 325 324 325 327 328 328 328 328 329 325 326 328 332 334 336 335 333 332 331 327 321 324 320 327 331 331 332 334 337 337 336 335 336 337 339 339 338 337 337 338 339
327 328 330 331 332 334 336 335 335 336 338 339 338 339 337 336 335 333 332 330 330 328 329 328 329 328 328 327 327 325 325 325 326 325 325 324 324 325 325 325 325 327 324 324 322 323 324 326 328 328 328 328 327 324 323 325 323 325 329 329 330 332 332 331 331 324 323 321 323 330 332 334 335 336 336 337 338 339 339 340 339 338 337 336 339
326 326 326 326 326 328 330 332 331 332 333 336 336 336 335 335 333 332 329 329 328 327 327 327 326 327 326 325 325 324 324 324 323 323 323 322 323 323 323 322 322 323 322 324 324 324 324 324 324 323 324 324 325 325 323 322 323 322 323 325 325 325 327 329 330 329 325 322 322 323 324 330 333 333 336 338 339 340 340 339 339 340 338 338 338
324 323 325 327 326 326 326 328 328 329 330 332 333 333 333 333 331 331 329 327 327 326 326 325 326 326 323 323 322 321 321 321 320 320 321 320 319 320 320 320 320 319 319 320 320 319 320 322 323 322 322 322 324 323 321 322 323 323 322 321 320 321 322 323 324 324 326 327 322 321 323 323 322 327 332 334 337 338 339 340 341 339 338 338 339
323 323 323 324 326 326 326 325 325 325 327 328 329 328 330 330 328 327 326 325 325 325 323 323 322 323 321 320 320 319 319 318 318 317 317 317 317 317 316 316 317 317 316 316 316 316 317 319 320 320 321 320 320 319 319 320 319 319 320 320 319 319 318 317 318 320 321 320 320 322 323 323 323 324 329 334 334 335 336 339 339 339 340 338 339
Wind_Speed
13 15 14 16 15 15 15 14 14 15 14 14 14 13 13 13 13 13 13 13 13 13 13 13 12 12 12 11 11 10 10 10 10 11 12 12 12 12 12 12 13 13 15 16 14 13 15 15 15 16 16 16 16 15 15 14 14 13 13 13 13 12 13 13 12 12 11 12 11 12 11 11 11 11 11 11 11 9 9 11 3 8 8 10 10
16 15 14 15 14 16 15 15 15 16 14 14 14 13 13 13 14 13 13 12 12 12 12 12 12 11 12 11 11 10 11 11 11 11 12 11 11 12 12 13 13 13 14 15 15 15 15 15 15 16 16 16 15 15 14 14 14 13 13 13 12 12 12 11 11 11 11 12 12 12 12 12 12 11 10 10 11 11 11 13 14 7 8 10 11
16 14 13 16 17 17 16 15 16 16 15 14 14 13 13 13 14 14 14 13 12 12 12 11 11 11 11 12 11 10 11 10 11 11 12 11 11 11 12 12 13 14 14 14 14 14 15 15 15 16 16 16 15 14 14 14 13 13 13 12 12 12 12 11 11 11 12 13 13 14 14 12 11 11 10 11 12 12 12 13 12 10 9 11 11
17 14 14 16 17 16 16 16 16 16 15 14 13 13 12 12 13 14 14 13 13 12 12 11 11 10 10 10 11 11 11 11 11 11 11 11 11 12 12 13 13 14 14 15 14 14 14 15 14 14 16 15 15 14 14 14 14 13 13 12 12 11 11 11 10 10 9 11 11 10 7 9 9 11 12 11 12 11 11 11 13 13 11 11 12
16 15 15 14 14 16 17 17 17 17 16 15 13 13 13 13 13 13 13 13 13 12 12 11 10 10 10 10 11 11 11 12 11 10 10 10 11 11 11 12 12 13 14 15 14 14 14 14 14 13 15 15 14 14 13 13 13 13 12 12 12 11 10 10 9 8 6 4 8 6 7 9 9 11 10 10 10 12 11 11 11 10 11 10 11
15 15 14 13 13 14 16 16 18 18 17 16 15 14 13 13 13 13 13 13 13 12 11 11 10 10 10 11 12 12 12 12 11 11 10 10 9 10 12 12 13 15 11 14 14 14 14 14 14 14 14 13 13 13 13 12 12 12 11 11 11 11 10 10 8 6 4 4 13 3 7 8 8 8 10 10 10 9 10 9 9 8 8 8 10
16 13 14 13 11 13 15 16 18 18 17 16 15 14 13 12 13 13 13 13 13 13 12 11 11 10 11 12 12 12 12 12 11 11 12 11 12 11 12 12 13 13 13 13 13 15 13 13 15 13 12 12 12 12 11 11 11 11 11 11 11 11 10 9 6 4 7 8 5 6 6 7 9 7 9 8 10 9 9 10 9 8 8 8 9
13 12 13 13 12 14 14 16 18 18 17 16 15 13 13 12 12 12 13 13 13 12 12 12 11 11 11 12 13 13 13 12 12 12 13 12 12 13 12 12 13 13 13 13 13 13 12 12 13 12 11 11 10 10 10 10 10 11 11 10 11 10 9 6 5 5 11 1 3 5 6 8 9 8 9 10 8 9 9 10 9 9 9 8 5
13 14 13 13 13 17 15 15 16 18 17 16 15 15 13 12 13 12 13 13 13 12 12 12 12 12 12 12 14 14 13 12 12 13 13 13 13 14 13 13 13 13 13 13 12 11 11 11 11 11 11 9 8 8 8 9 10 10 10 10 10 9 6 4 5 7 5 6 6 6 8 8 8 8 7 9 8 8 8 7 12 13 12 11 10
13 12 12 12 13 16 14 15 16 17 17 16 16 15 13 12 12 12 12 13 13 12 12 12 12 13 13 13 14 13 13 13 13 13 13 14 14 14 14 13 13 13 13 12 12 12 11 10 10 10 10 8 6 5 6 7 9 10 9 10 9 7 6 7 8 10 5 5 7 6 8 8 8 7 8 8 8 8 9 12 11 11 9 9 10
14 13 12 13 16 13 13 13 15 16 16 16 16 15 13 12 12 12 12 12 13 13 13 13 13 13 13 14 14 15 14 14 13 13 13 13 13 13 14 14 13 13 13 13 12 11 10 10 10 9 8 7 5 4 5 7 9 9 9 9 9 7 5 7 12 6 6 6 7 6 8 3 7 6 7 6 7 7 7 7 7 7 7 8 8
13 12 12 13 16 12 12 14 15 15 16 16 15 14 13 12 12 12 12 12 13 13 13 13 13 13 14 14 14 14 14 13 13 12 12 13 13 14 14 14 13 13 12 12 11 10 10 9 9 8 7 6 6 7 7 8 10 10 10 10 9 6 4 6 7 5 6 6 6 4 5 5 7 8 7 6 5 5 3 7 5 5 7 7 6
13 13 14 14 13 12 12 13 15 15 15 16 15 14 13 12 12 12 11 9 12 14 14 14 13 13 13 14 14 14 13 13 12 12 12 12 13 13 13 12 12 12 11 11 10 10 9 9 8 7 6 6 7 8 9 10 11 12 11 10 9 6 7 6 2 3 5 6 5 4 6 5 6 7 6 6 5 7 7 5 5 6 6 5 4
14 13 12 13 12 15 12 11 12 14 14 13 13 11 11 10 11 12 10 11 13 13 13 14 13 13 14 14 13 13 12 12 12 11 11 11 12 12 11 11 11 11 11 10 9 8 9 8 7 6 5 5 6 8 9 11 12 12 11 10 9 7 7 9 1 3 4 5 3 5 5 4 7 6 5 6 4 6 4 4 5 5 5 5 5
14 14 13 13 13 12 14 11 11 12 11 11 10 9 9 11 10 10 11 13 14 13 14 14 13 13 13 13 12 12 11 12 12 10 10 9 10 10 10 10 10 10 10 9 9 8 7 7 7 5 5 4 6 7 9 10 11 11 11 10 9 9 12 2 3 4 4 2 4 4 5 5 8 5 5 5 4 3 4 5 5 4 4 4 4
14 14 14 13 13 12 12 13 12 11 10 10 9 10 12 11 11 11 11 12 13 12 13 13 13 13 12 12 12 11 11 11 10 10 9 9 9 9 8 9 9 9 9 8 8 7 6 6 6 5 4 3 5 7 8 9 9 10 10 9 8 8 9 12 3 3 3 3 3 1 3 7 5 5 5 3 3 1 4 3 4 3 3 4 4
13 13 13 13 14 12 11 11 12 13 11 10 10 10 11 11 11 11 10 12 13 13 14 14 13 12 12 11 11 11 10 10 10 9 9 8 8 8 8 8 8 9 8 8 7 6 6 5 5 4 3 2 4 7 8 8 8 9 8 7 6 4 7 11 3 1 2 2 2 2 3 6 8 5 2 2 3 2 2 3 2 2 3 3 2
12 12 12 13 12 12 11 11 11 10 11 10 10 11 11 11 9 9 10 11 12 13 13 13 12 11 11 11 11 10 10 10 9 9 8 8 8 8 7 7 7 7 7 7 7 6 5 5 4 4 3 2 3 6 8 8 8 8 7 5 5 3 6 10 2 2 3 2 2 1 3 11 8 4 3 5 4 4 2 1 3 1 1 2 1
11 11 11 11 11 11 11 11 11 10 9 7 8 9 10 10 10 10 10 12 12 12 13 11 11 10 11 11 10 10 9 8 9 8 8 8 8 8 7 7 6 6 7 6 6 6 5 4 4 3 2 2 2 5 7 7 7 7 6 5 4 3 7 9 2 3 3 2 1 2 7 8 5 6 4 5 5 4 2 1 3 3 3 1 2
10 10 9 9 9 10 9 9 9 9 8 8 8 9 10 11 10 10 10 12 12 13 12 11 11 10 10 9 9 9 10 8 8 9 8 7 7 7 6 6 6 6 6 6 6 7 5 4 3 3 2 2 3 5 7 7 6 6 6 5 5 8 8 1 3 2 1 3 2 3 11 6 5 5 5 3 2 2 3 3 4 3 2 2 3
8 9 9 8 9 9 9 8 8 8 9 9 8 8 9 10 10 10 10 10 11 12 11 11 12 12 9 6 7 3 3 3 6 5 9 6 7 6 6 6 6 6 5 6 6 7 6 3 3 2 1 1 3 6 8 7 6 5 5 5 7 9 2 2 0 1 1 3 3 6 10 5 5 5 4 4 4 5 5 6 3 4 3 3 2
9 8 8 8 8 8 8 9 8 8 8 7 6 7 8 8 9 9 8 8 9 9 9 7 8 8 8 6 2 2 1 2 2 2 3 7 8 5 6 5 5 6 6 6 7 7 6 4 2 2 2 3 6 5 7 7 6 6 6 7 9 1 1 1 2 1 0 2 2 10 8 5 6 7 5 5 5 5 5 4 5 4 4 3 3
8 7 7 8 7 8 8 8 8 8 7 7 6 7 8 7 8 7 6 5 6 6 6 6 5 5 3 3 2 2 2 3 3 3 3 6 7 5 5 5 6 6 3 4 5 6 5 5 2 1 3 6 8 3 4 6 6 8 8 8 6 0 1 1 1 2 1 4 1 12 7 7 7 7 6 4 6 5 4 5 5 6 3 3 5
8 7 8 7 7 7 8 8 7 8 7 6 6 7 6 6 6 6 6 5 5 4 4 3 3 3 3 2 2 3 3 3 5 7 6 6 7 9 6 8 9 7 2 8 10 7 6 6 4 3 8 7 4 3 3 4 5 5 5 4 2 1 2 2 3 0 3 2 2 12 9 7 7 7 6 7 6 5 5 5 7 6 4 4 4
9 8 7 7 7 8 8 7 7 7 7 6 6 6 6 5 6 6 5 5 5 4 4 4 3 3 3 3 4 3 2 2 3 2 1 2 3 4 5 3 2 3 3 1 1 4 9 5 6 7 5 4 3 2 1 3 3 4 3 2 2 2 3 3 2 3 1 1 5 10 10 9 9 8 8 8 6 7 6 7 9 4 4 5 5
9 8 8 8 8 8 7 7 7 6 6 6 6 6 6 6 6 5 5 5 5 4 4 4 4 4 3 3 3 2 1 2 1 2 1 1 1 1 2 2 2 1 2 0 2 1 1 2 3 4 3 4 3 2 3 3 3 3 3 3 3 3 4 3 3 2 3 2 7 12 11 10 10 10 10 8 8 8 7 8 7 8 5 4 5
8 8 8 8 8 8 7 7 7 7 7 7 7 6 6 6 6 5 6 5 5 5 4 4 3 3 2 2 1 1 1 1 1 1 1 1 2 1 1 1 1 1 1 1 1 1 1 1 2 3 4 4 5 4 4 4 3 3 4 4 4 4 3 4 3 4 4 4 6 14 13 12 12 11 10 10 9 8 9 10 9 8 6 6 7
8 9 8 8 8 8 8 7 7 7 7 7 7 7 6 6 6 6 5 5 5 4 4 4 4 3 3 1 1 1 1 0 1 1 1 1 1 2 1 0 1 1 1 1 1 1 1 0 0 3 5 5 6 5 4 4 5 5 5 5 4 5 4 4 3 4 4 4 5 13 13 14 12 12 12 12 10 10 9 11 9 7 8 8 9
9 9 8 8 9 8 8 8 8 8 7 7 7 6 6 6 6 5 6 6 4 4 4 4 3 2 2 1 2 2 1 1 2 2 2 2 1 1 1 0 0 1 0 1 0 1 1 2 1 3 4 4 5 5 5 5 5 5 6 6 5 5 5 5 5 5 5 5 6 9 15 15 13 12 13 13 12 12 11 11 11 10 10 12 10
10 10 9 9 8 8 9 9 8 8 7 7 6 6 6 6 5 5 6 5 4 4 5 3 3 2 2 2 1 1 2 3 2 2 2 2 1 0 1 0 1 0 1 0 1 1 1 1 3 3 4 4 5 5 5 6 8 7 6 7 5 6 5 6 6 6 6 5 5 3 15 13 13 13 13 14 14 13 13 12 11 11 12 11 13
10 10 9 9 9 9 9 9 9 8 7 7 6 6 5 5 5 4 4 4 5 4 4 3 3 2 2 1 1 2 2 2 2 2 1 1 1 2 1 1 0 1 1 2 1 2 2 2 2 3 3 4 4 4 5 7 7 7 6 7 6 5 6 6 6 7 7 6 6 6 10 15 14 14 13 12 13 14 14 13 12 12 12 11 12
10 10 9 9 10 10 10 9 9 8 7 8 6 6 5 5 5 4 4 4 5 3 3 3 3 2 3 2 3 3 2 2 3 2 2 1 1 2 2 2 2 1 1 2 2 2 3 2 3 3 4 5 5 5 5 6 7 8 8 7 6 8 7 7 7 7 7 7 7 6 6 10 16 15 15 13 14 15 15 16 14 13 13 13 14
9 10 10 11 11 11 10 10 9 9 8 7 6 5 5 5 4 4 4 4 2 4 3 3 4 3 3 4 3 3 2 3 3 2 2 2 2 1 1 2 2 1 2 2 3 2 2 2 2 3 4 4 5 6 7 6 7 8 8 8 8 9 8 7 7 7 8 8 8 8 7 7 9 16 16 16 16 15 16 15 14 13 15 15 11
9 9 11 11 10 8 7 8 8 8 7 6 6 5 4 4 4 4 4 3 3 4 4 4 3 2 4 4 3 3 3 2 3 3 2 2 2 1 2 1 1 3 2 3 2 2 3 3 3 3 2 4 4 5 5 7 7 7 7 7 7 8 8 9 9 8 7 8 8 8 7 7 7 8 11 17 17 16 15 15 15 15 14 12 12
9 10 12 12 10 9 8 7 8 7 7 6 6 6 4 4 4 4 4 4 4 4 5 3 3 3 4 3 3 3 3 4 4 2 2 1 2 2 1 2 1 2 2 2 3 3 3 4 4 4 4 5 5 5 6 6 7 7 7 7 8 8 8 8 9 9 9 9 8 8 7 7 7 8 8 9 16 18 17 16 16 15 14 13 14
9 10 10 10 10 10 9 9 7 7 7 6 6 6 5 4 4 5 5 5 5 5 4 4 4 4 3 3 4 4 4 4 4 3 2 1 1 1 1 1 2 1 1 2 2 2 3 3 4 4 5 5 5 6 5 6 7 8 7 7 7 7 8 8 9 9 9 8 9 8 7 8 8 8 8 8 8 13 18 16 15 14 14 14 15
9 10 9 8 8 9 9 9 8 8 8 8 7 6 6 6 6 6 6 5 5 5 5 4 3 3 3 4 4 4 4 4 4 3 3 2 2 1 2 2 1 1 2 2 2 2 3 3 3 4 4 5 6 7 6 6 7 7 7 8 7 8 8 8 9 8 8 8 8 8 8 9 8 8 8 9 9 7 16 18 17 16 14 13 14
4 2 7 7 7 7 7 8 9 8 7 8 7 7 7 7 6 6 6 5 6 5 4 4 4 4 4 4 4 4 4 4 4 3 3 2 2 2 2 2 2 2 2 2 2 3 3 3 4 4 4 5 5 6 6 6 6 7 8 8 9 8 9 9 9 9 8 8 8 8 8 8 9 9 9 9 9 9 7 15 17 16 16 15 15
7 7 4 3 6 7 8 9 9 9 7 7 7 7 7 6 6 7 7 6 6 5 5 5 5 5 5 6 5 4 4 4 4 3 2 2 2 3 3 4 3 3 3 3 3 4 4 5 5 5 5 5 5 6 7 8 8 8 9 10 10 10 9 9 9 8 8 8 8 8 8 8 9 10 10 10 9 10 11 8 10 11 12 17 15
9 8 8 5 6 8 8 8 8 8 8 7 7 6 6 5 6 6 7 6 6 6 6 6 6 6 6 6 6 5 6 5 5 5 5 5 4 4 4 4 4 3 4 4 4 5 6 7 7 6 6 6 6 6 6 7 8 10 10 9 9 10 10 9 8 8 8 8 8 7 8 8 8 8 10 10 10 10 10 10 10 10 10 15 19
6 9 9 8 8 8 9 8 7 7 6 5 4 4 4 6 6 7 7 7 7 7 7 7 7 6 6 7 7 6 7 7 7 6 6 5 4 4 5 5 4 5 5 5 5 6 5 5 6 5 6 7 6 5 6 7 9 9 7 8 9 8 8 8 8 7 7 7 7 7 7 7 7 8 8 8 9 11 10 11 10 10 10 9 12
9 11 10 7 6 7 8 8 6 6 5 5 6 5 4 4 5 7 7 6 6 7 7 7 6 6 6 6 6 6 6 6 6 5 5 5 4 4 4 4 5 5 4 3 5 5 5 6 6 6 5 7 7 6 6 7 7 8 10 9 9 6 5 5 6 5 6 6 6 6 6 7 7 8 7 7 5 10 12 10 11 10 11 10 9
8 10 9 9 8 8 7 7 6 6 6 6 5 6 7 6 6 7 7 6 6 7 7 7 6 6 6 6 6 6 5 5 4 4 5 5 4 4 4 3 4 5 5 5 5 5 5 6 6 6 7 7 7 5 5 6 8 8 9 9 8 9 4 4 5 5 6 6 6 7 7 7 8 8 7 7 7 9 9 9 10 11 11 11 10
9 9 9 9 7 7 8 8 7 7 7 7 7 9 10 10 10 9 8 7 7 7 7 7 6 6 6 6 6 5 6 6 7 6 6 7 8 7 6 5 5 6 6 6 6 7 7 6 7 7 7 8 8 7 6 7 7 8 8 8 9 8 9 4 8 8 8 7 6 7 6 6 7 7 7 8 8 9 8 9 9 10 11 10 10
8 9 8 7 7 9 9 8 7 7 7 8 8 9 10 9 9 10 9 9 7 5 5 5 5 6 6 6 6 6 6 6 7 7 8 8 8 7 7 7 8 7 6 7 7 8 8 8 9 8 9 9 10 9 8 6 6 5 7 8 7 6 7 10 11 10 5 5 7 8 7 7 7 7 8 8 8 8 8 9 9 9 10 11 11
9 8 8 7 9 9 9 8 7 7 7 7 7 6 7 8 9 8 7 6 6 5 5 5 5 5 5 6 7 7 8 7 7 8 8 7 8 8 7 6 6 6 6 6 6 7 9 10 9 9 9 9 10 10 9 7 7 6 6 5 5 6 9 11 11 8 8 9 8 8 9 8 8 8 8 9 9 8 8 9 9 10 10 11 11
9 8 8 9 9 9 9 8 7 7 6 5 5 4 4 4 4 5 4 6 6 6 5 5 4 4 4 5 6 7 8 7 7 7 8 8 7 7 7 7 6 6 6 6 6 6 6 7 7 7 8 8 9 9 10 9 10 6 6 7 8 8 8 9 8 11 12 8 8 9 9 9 7 9 9 9 10 9 8 9 10 10 11 10 10
8 7 7 8 10 10 9 8 7 7 6 5 6 5 5 5 6 6 5 5 5 6 5 5 4 4 4 4 4 5 6 6 7 8 8 8 7 7 7 7 7 7 6 6 6 5 7 7 7 8 8 7 8 7 9 8 8 9 10 10 10 10 9 10 9 9 11 14 13 9 9 9 8 8 9 10 10 9 9 9 10 10 10 11 9
9 9 9 8 8 8 9 9 9 8 8 7 6 6 6 5 4 5 5 5 5 5 4 4 4 3 4 4 4 4 6 7 8 8 8 8 7 7 7 7 7 7 6 7 7 8 8 8 8 7 7 7 7 8 8 8 8 8 10 9 10 10 10 10 11 10 9 11 14 12 12 11 10 10 8 7 8 9 9 9 10 10 10 9 11
8 8 8 8 8 7 9 9 9 8 8 9 8 7 5 4 4 4 5 4 4 4 3 3 3 3 4 4 4 4 5 6 7 8 8 8 8 8 7 8 7 7 7 7 8 8 8 7 7 7 8 8 7 7 7 8 8 8 8 9 9 9 9 9 9 11 11 11 12 14 13 14 14 11 10 10 10 9 9 9 9 10 10 11 10
8 9 8 9 7 8 9 10 9 8 9 9 10 9 7 6 5 6 6 5 4 4 4 3 4 3 4 4 4 5 5 6 6 7 8 8 8 8 8 8 8 7 7 7 7 7 7 6 6 8 7 8 7 9 8 8 8 9 9 8 8 8 9 9 9 9 10 11 13 14 14 14 14 15 11 10 10 9 10 9 9 9 10 10 10
Wind_Direction
149 135 132 134 135 132 129 128 123 117 114 114 115 116 116 116 116 115 117 116 118 116 114 115 118 122 123 118 114 115 112 104 105 101 93 96 100 102 105 100 104 104 112 111 99 102 102 103 104 100 97 94 88 84 82 82 82 83 82 82 85 91 91 93 92 85 82 70 69 85 88 88 84 81 79 79 69 54 35 19 343 67 70 73 61
144 133 132 137 130 130 130 130 124 120 119 118 117 116 117 117 117 116 116 115 114 110 111 114 117 116 113 109 110 105 97 98 98 101 102 98 97 101 100 103 104 104 99 105 110 104 104 105 103 102 98 92 87 85 84 84 84 85 84 84 85 86 87 87 89 97 100 95 88 84 81 75 73 78 82 80 71 57 43 39 26 70 73 76 67
136 132 133 134 130 131 132 131 126 123 123 123 120 117 115 116 116 117 117 117 115 113 114 115 114 110 105 106 103 101 102 102 101 101 101 104 104 103 103 104 103 102 100 102 101 98 101 104 103 102 96 91 89 86 84 84 86 85 84 83 83 83 83 83 86 89 94 100 100 102 97 86 83 87 88 81 73 64 55 50 52 54 61 58 65
137 133 131 132 131 132 133 132 128 126 126 124 122 121 120 118 116 115 115 115 115 116 117 115 109 107 106 104 103 100 98 99 97 99 104 105 106 104 104 104 109 104 104 104 105 104 102 102 105 102 96 93 91 88 85 84 84 84 85 87 87 87 86 87 92 93 104 118 134 137 110 105 101 84 78 73 75 76 73 74 70 63 71 74 64
135 132 131 137 134 134 134 133 129 128 127 126 125 123 120 116 115 114 114 112 112 112 114 112 111 108 107 106 102 99 100 97 93 93 89 86 84 100 105 102 101 106 110 106 103 103 97 99 95 97 97 95 92 88 87 88 88 89 89 89 86 86 87 84 83 88 93 149 146 152 103 97 92 77 75 79 76 69 67 67 61 69 75 71 64
133 130 136 135 131 133 135 134 131 129 129 128 127 123 120 119 118 117 116 116 115 115 114 114 112 112 108 104 103 98 93 91 93 88 80 82 94 87 90 95 97 94 97 104 101 96 99 100 109 100 98 97 93 89 89 91 92 92 90 89 92 89 88 83 85 103 155 199 245 129 107 99 95 94 78 72 74 73 71 77 70 60 72 85 96
130 131 136 134 129 132 137 134 131 130 128 128 127 126 123 120 120 119 115 116 116 115 112 112 112 110 106 104 100 97 92 87 87 84 80 74 74 85 87 89 101 101 101 95 97 95 96 103 98 102 103 101 96 94 95 95 95 95 94 93 93 88 83 84 102 164 192 223 95 86 96 102 94 87 89 93 82 77 77 71 73 74 61 46 37
131 132 139 134 128 132 136 134 131 129 129 129 129 130 126 124 122 117 118 116 114 113 112 111 108 104 104 103 97 93 90 85 84 89 91 86 81 79 80 90 93 96 94 93 92 93 98 97 96 96 97 97 101 105 109 104 103 104 102 99 95 96 94 111 137 223 260 84 117 98 95 87 87 93 82 72 76 74 79 77 69 63 57 54 84
133 136 134 126 126 133 135 133 130 130 130 132 134 131 130 126 122 118 117 114 113 113 112 110 107 103 102 100 98 91 89 88 88 88 82 82 80 80 86 86 88 91 92 92 89 91 89 90 93 93 94 97 103 110 116 122 115 112 108 108 102 104 122 139 230 234 224 81 86 95 86 101 104 96 75 87 77 63 55 89 112 99 65 48 48
133 130 129 129 132 133 134 133 130 129 132 135 135 134 130 127 122 119 116 115 115 113 112 110 103 103 101 97 95 96 92 91 93 85 84 84 82 79 77 80 84 87 89 90 89 87 84 86 89 90 88 91 97 114 125 136 138 126 121 115 115 114 133 192 206 236 79 104 87 67 24 9 86 81 94 99 87 62 56 46 43 43 56 62 61
134 133 134 128 129 129 131 131 130 130 131 134 135 133 132 130 127 122 118 118 115 111 109 108 105 102 98 95 93 89 87 85 83 86 85 85 84 79 76 77 80 85 86 84 82 81 81 82 85 85 85 86 94 109 131 139 146 146 131 125 125 139 179 216 237 97 105 89 89 98 78 47 80 87 101 86 81 70 61 56 54 54 60 62 62
137 132 129 119 124 130 130 131 130 130 131 135 135 136 135 131 128 123 120 116 115 111 107 102 99 96 93 93 94 92 91 89 86 86 86 83 83 81 79 80 82 83 84 84 83 82 80 82 83 83 83 85 92 102 115 129 142 147 141 132 132 158 214 219 257 103 108 106 97 99 112 109 90 97 111 104 85 83 83 73 61 68 67 62 65
137 129 122 126 133 127 130 132 132 131 133 135 137 137 134 131 126 121 114 111 114 110 108 104 101 99 97 94 93 92 90 87 85 83 81 82 82 83 83 83 83 83 83 83 85 84 82 81 80 81 85 93 100 110 112 125 138 143 142 138 144 158 234 281 241 120 104 111 123 132 97 96 86 99 106 107 103 82 72 83 86 78 69 62 45
133 131 130 132 131 130 130 129 130 131 132 135 136 134 131 127 118 114 108 111 112 109 108 107 105 104 99 96 94 91 89 87 84 81 82 83 83 85 86 86 86 86 85 86 85 83 83 84 84 79 80 93 117 121 124 128 137 144 143 143 148 174 224 232 74 113 113 120 129 90 99 98 99 113 127 115 124 115 108 81 89 76 73 66 58
135 136 138 131 133 134 129 125 126 128 126 128 130 129 113 103 103 106 114 118 115 111 111 109 107 103 103 101 100 98 95 87 82 81 81 80 80 82 86 90 88 85 84 85 86 88 86 88 84 83 84 106 128 135 132 134 139 144 148 149 151 189 219 176 186 106 125 133 122 173 125 102 101 140 127 130 112 107 106 113 94 87 89 81 73
139 141 137 136 135 132 136 132 127 123 122 123 118 103 100 104 111 111 112 116 115 113 114 110 110 107 103 101 98 94 92 92 90 86 81 80 81 84 86 87 86 85 84 83 88 90 90 91 89 88 87 107 140 142 141 143 144 149 147 150 166 203 224 278 112 129 120 157 129 100 104 97 108 130 125 131 125 135 115 99 94 92 88 92 82
143 144 140 135 138 138 133 141 129 124 121 113 101 99 99 99 103 109 116 120 121 120 114 113 110 109 108 106 102 100 99 98 97 94 91 89 87 89 91 88 87 86 87 86 88 94 93 97 99 96 98 110 146 155 152 150 151 145 148 157 170 187 278 292 98 141 106 87 124 158 139 126 132 146 163 125 146 137 99 107 94 68 95 87 77
148 143 141 140 143 139 140 129 134 137 128 123 115 112 110 102 95 101 113 119 120 119 115 113 114 114 112 110 109 108 106 103 100 96 93 90 89 87 89 85 84 86 87 90 88 89 96 100 106 105 105 126 148 164 162 160 149 147 149 162 168 171 267 277 94 107 89 145 153 87 78 85 126 146 163 158 152 163 136 270 123 153 136 106 93
145 145 145 145 143 138 136 136 140 133 138 131 131 118 112 110 106 99 106 116 118 119 118 117 118 117 116 112 115 115 107 109 107 101 99 98 109 106 82 86 93 86 82 93 91 85 89 105 110 105 115 120 144 169 172 160 156 150 152 160 164 191 246 259 107 101 116 198 100 170 85 106 127 168 176 161 165 175 167 212 127 142 138 108 360
140 138 143 141 140 137 135 135 137 137 135 127 130 126 119 117 110 108 114 121 121 119 121 127 125 117 112 117 124 134 134 122 133 120 111 104 55 69 88 84 81 78 83 82 87 88 87 105 98 95 94 96 122 153 169 163 154 155 156 155 180 205 224 213 30 53 118 62 330 90 107 140 170 214 174 176 201 155 166 151 166 160 198 276 302
143 142 139 135 130 131 129 131 129 130 128 127 133 125 119 124 119 108 107 114 119 122 128 138 134 125 131 142 182 173 84 119 152 100 149 103 108 112 100 89 79 78 84 77 73 91 93 97 85 65 67 96 121 134 152 158 156 156 160 175 202 223 42 39 293 100 35 120 214 94 126 158 199 224 184 206 204 190 172 190 182 216 238 274 256
144 141 136 133 133 132 127 125 125 121 126 130 127 125 136 147 132 137 131 129 127 145 159 146 139 125 144 174 126 93 115 106 81 111 123 135 118 104 116 109 97 93 80 80 76 88 98 96 79 37 9 240 187 162 151 153 160 166 169 198 222 227 146 53 280 130 56 113 240 108 138 177 206 212 220 178 216 218 200 201 217 228 226 250 265
146 142 137 134 133 131 130 124 117 135 135 130 132 132 136 132 138 138 132 145 143 158 143 147 135 130 116 95 86 87 115 114 89 68 84 50 93 104 110 115 109 84 93 105 100 89 89 102 83 325 284 247 225 185 162 154 157 174 186 215 234 213 57 317 296 286 231 58 314 121 146 191 231 217 225 189 227 232 216 237 230 233 211 245 256
140 138 133 128 136 125 116 118 133 139 142 130 132 135 130 136 138 139 136 134 155 143 133 113 103 95 117 104 133 133 130 118 141 171 182 163 141 157 161 161 155 139 195 204 154 142 143 144 138 239 225 215 213 189 167 162 157 175 190 210 211 181 226 203 251 204 304 115 98 131 153 202 226 244 246 239 229 228 234 243 256 242 192 238 231
141 133 135 130 124 124 130 137 138 136 134 130 132 129 131 141 133 129 127 130 136 141 142 145 141 143 150 162 164 160 109 79 78 82 82 106 135 143 172 165 143 148 205 125 220 131 190 147 157 207 207 223 206 175 203 149 182 180 176 214 203 219 240 226 233 277 236 220 116 147 164 201 221 236 245 241 240 245 232 246 250 246 220 211 236
139 144 134 132 130 134 138 137 136 134 133 133 123 126 137 134 130 120 127 130 132 131 141 146 143 157 160 152 110 119 134 101 55 44 52 48 68 67 73 107 145 133 183 165 108 228 108 149 166 183 191 212 219 206 194 206 186 212 201 202 223 220 235 251 238 221 258 245 144 159 174 202 215 229 234 243 238 236 238 243 256 254 218 221 224
145 137 143 137 134 134 131 139 133 133 128 122 127 137 130 129 132 133 133 133 137 140 138 140 145 153 165 110 93 64 86 43 67 56 33 10 40 44 71 99 67 81 135 185 139 165 263 121 172 185 197 208 212 201 208 207 250 235 227 225 224 239 237 240 230 226 229 224 156 167 181 201 212 219 226 235 234 235 234 237 233 242 174 210 217
136 141 142 141 139 136 132 137 135 134 132 130 127 130 132 135 127 131 140 130 144 136 133 130 141 152 134 122 342 33 21 46 93 357 41 6 17 33 35 87 126 130 74 220 186 180 196 194 163 204 205 209 212 217 227 221 216 243 257 252 243 251 261 270 266 266 253 223 223 171 185 199 208 215 220 230 235 235 229 237 247 241 216 202 222
132 146 139 138 137 135 138 133 134 135 129 131 129 134 138 135 141 145 130 156 135 131 123 138 147 128 117 114 58 23 360 7 14 4 15 26 357 356 324 34 317 53 221 9 360 227 210 227 215 246 205 225 220 218 230 235 239 239 246 251 252 264 265 267 265 256 251 258 246 178 182 192 208 214 214 220 227 230 226 233 239 219 230 201 219
144 141 143 139 137 141 141 137 138 137 130 131 132 133 134 132 135 132 130 148 130 141 157 148 123 96 77 49 36 18 347 8 4 3 2 27 25 16 286 31 334 5 314 360 6 278 279 257 248 249 262 223 239 226 227 238 233 237 243 259 255 256 257 259 257 254 264 254 246 211 176 188 209 212 216 218 223 224 232 231 231 241 233 223 213
145 146 144 140 139 143 139 139 136 136 138 132 134 131 135 140 134 135 137 138 132 133 127 116 109 93 77 52 28 39 351 4 357 358 358 356 29 1 5 349 47 39 355 338 337 312 297 292 286 301 295 300 295 280 254 253 259 257 242 250 259 263 263 262 262 265 265 261 254 250 186 188 201 216 216 219 223 229 230 234 231 234 237 240 237
146 149 143 140 142 139 139 140 141 141 139 132 135 133 138 136 132 133 136 128 127 134 114 111 100 102 89 72 56 34 27 29 21 360 328 353 23 25 13 345 6 8 347 325 310 317 295 294 293 269 281 276 268 270 271 269 264 262 265 258 263 264 261 261 262 264 262 268 268 251 247 194 197 205 214 212 217 224 230 240 241 235 237 229 229
146 148 141 145 142 140 143 144 143 146 146 142 137 139 144 138 140 136 130 122 121 110 100 86 79 78 75 74 64 67 43 39 31 23 356 15 33 359 17 12 351 339 316 314 323 301 283 274 251 266 264 265 271 269 265 265 268 266 266 267 266 266 271 274 269 262 263 258 258 263 252 242 207 198 208 213 215 218 226 236 248 243 235 228 221
145 145 145 147 145 146 142 138 137 134 133 132 135 139 137 138 139 128 121 121 102 87 80 71 82 83 80 60 58 55 52 45 34 42 37 53 55 34 39 68 333 337 334 343 329 336 319 320 307 286 284 284 278 273 276 271 270 275 273 273 273 281 286 281 278 276 268 262 262 257 254 244 237 216 205 209 215 217 220 227 234 243 253 246 209
144 146 151 150 154 144 145 136 141 136 137 129 129 133 144 143 130 127 117 110 96 77 72 87 85 80 73 70 59 56 41 42 48 37 61 73 81 54 38 45 352 349 337 4 329 333 328 324 334 320 323 303 299 300 297 294 290 286 288 286 280 283 277 274 272 268 267 265 262 260 256 253 250 242 228 212 205 214 214 220 225 235 245 248 230
144 148 149 154 150 144 144 133 129 131 128 130 137 134 131 129 119 108 109 98 95 89 86 69 60 60 68 75 56 53 45 45 46 47 64 64 83 98 76 53 15 341 348 1 320 341 338 327 326 321 315 308 305 297 295 295 292 288 286 287 288 284 283 281 278 274 268 268 262 255 253 251 251 247 243 247 231 201 208 212 219 224 234 239 234
140 149 152 149 135 136 135 129 133 131 138 145 143 135 140 130 115 107 107 109 100 101 92 92 79 74 63 57 57 49 48 49 58 68 70 60 53 52 58 33 323 358 339 340 321 358 338 333 323 324 312 311 307 304 301 296 296 296 290 289 287 285 280 281 281 277 276 267 267 267 262 258 254 255 252 247 248 242 188 206 207 216 221 231 233
104 124 146 143 156 136 135 130 133 146 146 145 143 145 131 125 118 105 89 94 95 82 82 82 71 58 57 58 58 55 46 43 41 44 54 56 58 42 53 14 349 345 343 321 349 345 339 324 317 315 306 301 296 299 298 299 297 295 293 291 291 288 286 283 281 282 276 272 270 266 267 268 260 255 247 244 246 239 225 194 205 210 218 220 224
163 185 126 124 139 145 141 141 150 144 142 140 138 130 129 121 119 117 112 98 86 89 87 77 67 62 59 52 47 50 49 47 41 27 24 15 32 32 24 12 6 349 349 344 350 353 343 336 325 319 311 303 301 293 291 296 293 291 290 285 279 272 272 271 277 283 285 280 271 268 266 263 266 260 254 250 240 239 232 214 205 215 215 215 221
160 140 125 159 176 144 140 145 139 137 137 142 146 144 143 127 113 99 88 80 77 72 68 69 72 70 64 55 53 47 47 40 40 35 38 31 27 26 24 15 16 3 5 360 352 351 353 339 328 327 318 302 292 295 298 303 299 292 290 287 281 277 270 267 266 270 275 274 272 267 260 260 259 262 260 254 249 242 238 229 223 221 224 206 209
136 139 148 179 169 158 143 133 133 133 136 131 119 111 115 112 100 90 86 84 82 78 76 72 71 73 69 66 61 51 47 43 36 39 35 43 37 33 30 22 14 16 9 3 353 344 342 326 324 316 309 312 310 313 308 306 302 299 295 293 290 282 267 256 259 258 261 267 268 268 265 261 260 263 266 263 264 254 243 236 232 230 224 227 195
137 135 141 146 142 137 120 113 112 108 99 98 104 96 91 94 110 109 103 96 104 95 83 76 75 76 74 71 69 67 58 49 41 41 39 35 42 45 35 27 20 16 354 356 354 351 331 335 333 317 320 314 315 321 320 316 304 318 318 316 300 292 265 240 246 253 257 256 257 259 265 267 264 268 265 264 277 281 259 247 241 234 229 222 209
127 122 116 125 117 107 99 104 105 103 102 101 102 99 99 95 100 100 101 94 76 88 94 93 87 81 76 71 66 62 60 58 52 29 30 21 16 34 42 17 15 5 352 2 360 339 345 335 337 331 325 315 310 312 317 318 313 317 308 299 315 320 308 238 203 241 250 259 266 270 267 263 262 262 265 260 250 245 262 259 254 246 235 228 217
113 111 105 99 94 96 103 100 97 97 90 84 85 89 85 90 93 99 106 104 99 93 94 95 101 94 76 58 56 54 48 43 32 25 27 19 9 14 17 4 28 20 354 350 347 341 349 350 350 338 325 318 322 326 322 318 313 321 318 327 311 305 306 323 332 314 299 288 275 276 273 268 269 267 265 261 257 260 256 258 243 248 243 226 228
94 103 104 102 104 102 99 96 97 93 96 103 104 105 109 107 105 102 106 105 101 98 101 97 90 80 73 64 53 48 54 53 44 36 32 29 21 14 15 17 14 11 2 357 357 351 343 344 347 346 342 338 325 323 313 313 311 312 308 313 314 298 323 322 326 307 300 295 278 273 275 274 269 271 267 263 259 254 256 259 260 251 243 233 233
84 87 92 105 111 111 104 99 94 91 96 103 106 117 126 134 136 137 131 127 123 122 105 88 78 71 73 74 56 41 41 37 37 39 38 31 26 24 23 26 21 17 15 14 14 5 356 346 350 346 338 342 334 318 320 327 323 313 304 300 291 298 310 321 318 308 311 293 292 295 294 286 283 275 273 273 269 261 250 252 242 243 240 237 236
90 101 99 94 89 97 98 98 96 90 78 79 89 96 101 114 114 95 111 120 117 101 98 96 90 94 99 80 69 50 44 49 43 41 41 34 31 24 19 14 15 15 14 14 13 11 352 340 345 341 334 331 337 330 334 332 327 324 344 320 306 296 295 300 302 310 305 306 302 302 301 298 288 282 282 275 269 266 253 251 258 251 240 236 238
97 90 85 78 85 91 97 93 91 85 74 74 80 80 95 88 90 98 99 93 103 109 104 97 90 91 80 75 79 60 52 42 32 32 35 32 27 20 15 13 8 3 360 4 3 357 344 338 338 337 335 339 328 323 323 325 327 321 335 326 318 312 303 293 283 286 296 301 302 303 296 304 303 288 282 274 269 266 266 256 252 252 242 236 229
98 97 88 62 56 64 80 88 85 87 85 82 82 64 69 79 93 110 112 112 115 116 114 113 110 87 80 66 55 52 49 43 39 37 34 32 26 21 18 16 10 3 351 352 349 341 337 334 337 340 337 332 325 329 321 320 321 318 323 317 318 312 312 303 298 293 288 297 299 304 311 312 302 296 292 281 271 266 263 256 256 260 260 249 239
90 80 81 83 70 67 75 77 75 72 71 75 81 83 81 75 67 65 100 113 116 103 92 99 102 98 76 69 63 53 48 50 46 38 35 34 31 26 26 23 17 11 7 4 358 356 354 349 347 343 334 335 328 333 328 319 319 321 321 318 313 314 309 311 312 315 308 302 298 306 307 310 309 308 305 292 281 270 260 253 250 248 249 249 239
101 91 81 80 81 84 82 77 71 74 73 73 73 76 73 69 77 72 77 82 82 96 109 96 82 79 80 73 71 67 58 56 52 46 40 38 38 36 32 31 27 21 14 9 7 359 354 354 357 354 2 358 353 347 338 336 337 330 324 319 319 319 319 314 311 310 313 307 304 300 305 305 304 303 300 299 292 277 272 259 247 247 253 252 238